This is the latest recevied weather packets stored in our database for station/object W4UWO. If no packets are shown the sender has not sent any weather packets the latest 10 day(s).
| Time | Temp. | Humidity | Pressure | Rain* | Wind** | Luminosity | Snow |
|---|---|---|---|---|---|---|---|
| 1788570704 | 32.22° C | 56% | 1015.5 hPa | 0 mm | - | 0 W/m² | - |
| 1788570398 | 32.22° C | 56% | 1015.5 hPa | 0 mm | - | 0 W/m² | - |
| 1788570094 | 32.22° C | 56% | 1015.4 hPa | 0 mm | - | 0 W/m² | - |
| 1788569790 | 32.22° C | 57% | 1015.3 hPa | 0 mm | - | 0 W/m² | - |
| 1788569486 | 31.67° C | 58% | 1015.4 hPa | 0 mm | - | 0 W/m² | - |
| 1788569185 | 31.11° C | 63% | 1015.4 hPa | 0 mm | - | 0 W/m² | - |
| 1788568881 | 31.67° C | 62% | 1015.2 hPa | 0 mm | - | 0 W/m² | - |
| 1788568576 | 32.22° C | 60% | 1015 hPa | 0 mm | - | 0 W/m² | - |
| 1788568272 | 32.22° C | 59% | 1015 hPa | 0 mm | - | 0 W/m² | - |
| 1788567967 | 32.78° C | 57% | 1015.2 hPa | 0 mm | - | 1 W/m² | - |
| 1788567662 | 33.33° C | 56% | 1015.2 hPa | 0 mm | - | 1 W/m² | - |
| 1788567357 | 32.78° C | 56% | 1014.9 hPa | 0 mm | - | 2 W/m² | - |
| 1788567056 | 33.33° C | 55% | 1015.2 hPa | 0 mm | - | 4 W/m² | - |
| 1788566752 | 33.33° C | 54% | 1015.2 hPa | 0 mm | - | 8 W/m² | - |
| 1788566448 | 33.89° C | 54% | 1015.2 hPa | 0 mm | - | 13 W/m² | - |
| 1788566143 | 33.89° C | 53% | 1015 hPa | 0 mm | - | 18 W/m² | - |
| 1788565843 | 34.44° C | 52% | 1015 hPa | 0 mm | - | 24 W/m² | - |
| 1788565542 | 34.44° C | 51% | 1015 hPa | 0 mm | - | 28 W/m² | - |
| 1788565239 | 35° C | 50% | 1014.9 hPa | 0 mm | - | 33 W/m² | - |
| 1788564939 | 35° C | 48% | 1015 hPa | 0 mm | - | 41 W/m² | - |
| 1788564635 | 35.56° C | 47% | 1015 hPa | 0 mm | - | 47 W/m² | - |
| 1788564332 | 36.11° C | 46% | 1014.9 hPa | 0 mm | - | 52 W/m² | - |
| 1788564028 | 36.11° C | 46% | 1014.6 hPa | 0 mm | - | 61 W/m² | - |
| 1788563724 | 36.11° C | 46% | 1014.6 hPa | 0 mm | - | 70 W/m² | - |
| 1788563418 | 35.56° C | 46% | 1014.7 hPa | 0 mm | - | 87 W/m² | - |
* Rain latest hour (hover to see other rain measurements)
** Current wind speed in m/s (hover to see current wind gust speed)